ONEWEB-0302 (49091 NORAD) Tracking and Keplerian Element Data

This shows tracking and keplerian element data for the satellite.

Feedback or suggestion? Click here.




ElementValue
Catalog49091
NameONEWEB-0302
Epoch Orbit562
Epoch Day262.16668981
Epoch Year2021
RAAN356.3216
Inclination87.3302
Eccentricity0.0021533
Argument of Perigee187.623
Mean Anonmoly18.0301
Mean Motion15.21913137
Decay Rate-0.00813806
L11 49091U 21075S 21262.16668981 -.00813806 00000-0 -38408-1 0 9998
L22 49091 87.3302 356.3216 0021533 187.6230 18.0301 15.21913137 5624

Live tracking and technical data element details for ONEWEB-0302 (NORAD 49091). ONEWEB-0302 can be tracked NOW for your location showing map with azimuth and elevation plus other details from your city location.

Track the satellite on the map from your city or location and see movement details for azimuth, elevation, latitude, longitude, range, height, and movement on the map or in text.







IsCatalogInMostPopularTable: catalog: 49091, numindb: 6
Update: records affected: 1



GetName: 49091 ONEWEB-0302

Hit Count: updated at: Fri, 24 Sep 2021 17:32:03 GMT